User: anonymous
Location: Waldport
(44.4270°N, 124.0680°W)
Time: 00:07:39
(UTC-07:00)
Language:

Cosmos 1023 Rocket - Orbit

View from above orbital plane
View from above orbital plane
View from above satellite
View from above satellite

Ground track
Ground track

The orbit data is extracted from the following two-line orbital elements,

1 10962U 78063B   14206.50820006  .00000120  00000-0  45588-4 0  7957
2 10962 074.0820 010.9892 0025290 188.0765 226.5688 14.40679791893547
Epoch (UTC): 25 July 2014 12:11:48
Eccentricity: 0.0025290
inclination: 74.0820°
perigee height: 738 km
apogee height: 774 km
right ascension of ascending node: 10.9892°
argument of perigee: 188.0765°
revolutions per day: 14.40679791
mean anomaly at epoch: 226.5688°
orbit number at epoch: 89354

The dashed part of the orbit path shows where the satellite is in the earth's shadow,  

DLR